SHLBYV-WX Weather Reports


time (UTC)temp
C
wind
direction
speed
KPH
gust
KPH
rain 1hr
cm
rain 24hr
cm
rain mn
cm
humidity
%
barometer
mb
20260906124549 14 57 11.3 0.0 0.00 0.00 0.00 91 989.1
20260906123058 13 57 11.3 0.0 0.00 0.00 0.00 91 989.1
20260906121548 13 55 9.7 0.0 0.00 0.00 0.00 91 989.1
20260906120045 13 52 9.7 0.0 0.00 0.00 0.00 91 989.1
20260906114550 12 54 8.0 0.0 0.00 0.00 0.00 88 987.5
20260906113049 12 48 8.0 0.0 0.00 0.00 0.00 84 988.9
20260906111549 12 57 8.0 0.0 0.00 0.00 0.00 84 988.9
20260906110051 13 61 8.0 0.0 0.00 0.00 0.00 84 988.9
20260906104549 13 58 8.0 0.0 0.00 0.00 0.00 83 988.1
20260906103053 13 56 8.0 0.0 0.00 0.00 0.00 85 989.0
20260906101545 13 54 8.0 0.0 0.00 0.00 0.00 85 989.0
20260906100055 13 54 6.4 0.0 0.00 0.00 0.00 85 989.0
20260906094551 13 51 6.4 0.0 0.00 0.00 0.00 87 988.1
20260906093052 13 45 8.0 0.0 0.00 0.00 0.00 85 988.8
20260906091549 13 52 8.0 0.0 0.00 0.00 0.00 85 988.8
20260906090055 14 58 8.0 0.0 0.00 0.00 0.00 85 988.8
20260906084552 14 59 8.0 0.0 0.00 0.00 0.00 86 987.7
20260906083049 14 56 8.0 0.0 0.00 0.00 0.00 82 988.2
20260906081547 15 61 9.7 0.0 0.00 0.00 0.00 81 988.0
20260906080110 15 61 9.7 0.0 0.00 0.00 0.00 81 988.0
20260906074549 15 60 9.7 0.0 0.00 0.00 0.00 79 987.2
20260906073049 15 61 8.0 0.0 0.00 0.00 0.00 79 987.2
20260906071551 15 67 8.0 0.0 0.00 0.00 0.00 79 987.2
20260906070053 16 71 8.0 0.0 0.00 0.00 0.00 79 987.2
20260906064601 16 72 8.0 0.0 0.00 0.00 0.00 75 986.7
20260906063055 16 68 9.7 0.0 0.00 0.00 0.00 70 987.1
20260906061549 16 64 9.7 0.0 0.00 0.00 0.00 70 987.1
20260906060054 16 61 9.7 0.0 0.00 0.00 0.00 70 987.1
20260906054550 17 63 11.3 0.0 0.00 0.00 0.00 69 987.3
20260906053047 17 60 9.7 0.0 0.00 0.00 0.00 73 987.0
20260906051550 17 61 8.0 0.0 0.00 0.00 0.00 73 987.0
20260906050053 17 65 8.0 0.0 0.00 0.00 0.00 73 987.0
20260906044550 17 69 9.7 0.0 0.00 0.00 0.00 74 986.9
20260906043055 18 65 9.7 0.0 0.00 0.00 0.00 70 986.8
20260906041549 18 60 9.7 0.0 0.00 0.00 0.00 70 986.8
20260906040046 18 60 9.7 0.0 0.00 0.00 0.00 70 986.8
20260906034545 18 59 11.3 0.0 0.00 0.00 0.00 73 986.7
20260906033051 18 57 9.7 0.0 0.00 0.00 0.00 75 987.1
20260906031549 19 56 12.9 0.0 0.00 0.00 0.00 75 987.1
20260906030051 19 56 11.3 0.0 0.00 0.00 0.00 75 987.1
20260906024549 20 56 11.3 0.0 0.00 0.00 0.00 71 985.8
20260906023046 20 56 11.3 0.0 0.00 0.00 0.00 73 986.2
20260906021545 20 56 11.3 0.0 0.00 0.00 0.00 73 986.2
20260906020044 20 54 11.3 0.0 0.00 0.00 0.00 73 986.2
20260906015057 20 49 9.7 0.0 0.00 0.00 0.00 75 985.4
20260906013048 21 44 9.7 0.0 0.00 0.00 0.00 75 985.4
20260906011548 21 50 12.9 0.0 0.00 0.00 0.00 75 985.4
20260906010059 21 43 11.3 0.0 0.00 0.00 0.00 75 985.4
20260906004547 21 43 8.0 0.0 0.00 0.00 0.00 75 985.6
20260906003055 21 25 6.4 0.0 0.00 0.00 0.00 75 985.6
20260906001547 21 36 6.4 0.0 0.00 0.00 0.00 75 985.6
20260906000056 22 30 6.4 0.0 0.00 0.00 0.00 75 985.6
20260905234552 22 37 6.4 0.0 0.00 0.00 0.00 65 985.4
20260905233049 23 39 9.7 0.0 0.00 0.00 0.00 65 985.5
20260905231552 23 50 9.7 0.0 0.00 0.00 0.00 65 985.5
20260905230052 23 53 11.3 0.0 0.00 0.00 0.00 65 985.5
20260905224552 24 51 12.9 0.0 0.00 0.00 0.00 71 985.2
20260905223047 24 53 12.9 0.0 0.00 0.00 0.00 69 985.7
20260905221547 24 53 14.5 0.0 0.00 0.00 0.00 69 985.7
20260905220048 24 52 12.9 0.0 0.00 0.00 0.00 69 985.7
20260905214552 24 51 12.9 0.0 0.00 0.00 0.00 74 985.6
20260905213053 24 50 14.5 0.0 0.00 0.00 0.00 73 985.9
20260905211548 23 53 14.5 0.0 0.00 0.00 0.00 73 985.9
20260905210054 23 54 14.5 0.0 0.00 0.00 0.00 73 985.9
20260905204552 23 50 12.9 0.0 0.00 0.00 0.00 79 984.9
20260905203052 23 47 12.9 0.0 0.00 0.00 0.00 79 985.3
20260905201552 23 55 16.1 0.0 0.00 0.00 0.00 79 985.2
20260905200059 23 50 16.1 0.0 0.00 0.00 0.00 79 985.2
20260905194552 23 47 16.1 0.0 0.00 0.00 0.00 78 985.3
20260905193052 22 50 16.1 0.0 0.00 0.00 0.00 78 985.3
20260905191548 23 53 12.9 0.0 0.00 0.00 0.00 78 985.4
20260905184554 23 55 12.9 0.0 0.00 0.00 0.00 80 986.2
20260905183052 24 57 11.3 0.0 0.00 0.00 0.00 76 986.2
20260905181551 24 41 9.7 0.0 0.00 0.00 0.00 76 986.2
20260905180054 24 55 9.7 0.0 0.00 0.00 0.00 76 986.2
20260905174552 24 59 9.7 0.0 0.00 0.00 0.00 78 986.3
20260905173053 23 57 11.3 0.0 0.00 0.00 0.00 81 985.6
20260905171552 23 58 8.0 0.0 0.00 0.00 0.00 81 985.6
20260905164552 23 68 8.0 0.0 0.00 0.00 0.00 86 986.1
20260905163053 22 69 8.0 0.0 0.00 0.00 0.00 81 984.9
20260905161549 23 76 8.0 0.0 0.00 0.00 0.00 81 985.0
20260905160047 23 80 9.7 0.0 0.00 0.00 0.00 81 985.0
20260905154547 22 82 9.7 0.0 0.00 0.00 0.00 84 986.2
20260905153052 22 70 9.7 0.0 0.00 0.00 0.00 86 985.0
20260905151548 22 61 11.3 0.0 0.00 0.00 0.00 86 985.0
20260905150047 22 63 12.9 0.0 0.00 0.00 0.00 86 985.0
20260905144601 21 60 12.9 0.0 0.00 0.00 0.00 91 985.5
20260905143045 21 59 11.3 0.0 0.00 0.00 0.00 88 985.1
20260905141552 22 54 12.9 0.0 0.00 0.00 0.00 88 985.1
20260905140052 21 57 11.3 0.0 0.00 0.00 0.00 88 985.1
20260905134552 21 63 11.3 0.0 0.00 0.00 0.00 96 984.4
20260905133052 21 66 11.3 0.0 0.00 0.00 0.00 96 984.4
20260905131548 20 50 9.7 0.0 0.00 0.00 0.00 96 984.4
20260905130054 20 51 11.3 0.0 0.00 0.00 0.00 96 984.4